Simultaneous Nadir Overpasses (SNOs) Predictions

Prediction of SNOs between GOES-16 and TERRA Satellite Orbit:

Table of predicted SNOs for the next 14.0 days since TLE Epoch: 4/27/2024
Index Date Time (GOES-16) GOES-16 Lat,Lon TERRA Lat,Lon Distance(km) Time Diff (sec)
1 04/28/2024 02:33:13 -0.04, -75.20 0.76, -71.25 448.55 80
2 04/28/2024 14:53:10 0.04, -75.22 0.24, -76.11 101.26 80
3 04/30/2024 14:38:38 0.03, -75.22 -0.67, -71.96 370.80 80
4 05/01/2024 02:58:45 -0.03, -75.21 -0.35, -76.86 186.60 80
5 05/03/2024 02:38:51 -0.03, -75.22 0.49, -72.70 286.77 80
6 05/03/2024 14:58:48 0.03, -75.24 0.54, -77.55 262.42 80
7 05/05/2024 14:44:14 0.03, -75.26 -0.37, -73.40 212.47 80
8 05/06/2024 03:04:20 -0.03, -75.26 -0.69, -78.28 344.15 80
9 05/08/2024 02:44:25 -0.02, -75.28 0.21, -74.12 131.58 80
10 05/08/2024 15:04:22 0.02, -75.30 0.77, -78.98 417.18 80
11 05/10/2024 14:49:45 0.02, -75.33 -0.07, -74.81 59.36 80
